Find Kuiper-00092

NORAD ID: 64837 Int'l Des: 2025-151 Owner: KUIP Country: US Constellation: kuiper operational
LEOCIRCULAR

Live-Position

3D-Globus wird geladen...

Über Kuiper-00092

Beschreibung wird geladen...

Nächste Überflüge

Passes for default location (London). Set your location on the main map for personalized predictions.

Höhenverlauf

Loading altitude history...

Zweizeiliger Elementsatz

1 64837U 25151X 26103.78505588 .00001385 00000-0 21057-3 0 9995
2 64837 51.8996 135.4039 0000854 52.4537 307.6503 14.79943097 41851
Epoch: 13. Apr. 2026 • Age: 16 hours

Aktueller Status

Höhe 632.2 km
Geschwindigkeit 7.55 km/s
Subsatellitenpunkt 39.10°N, 159.75°E
Startdatum 16. Juli 2025
Alter 0.7 years
Typ internet

Technische Details

Klassifizierung Payload
Masse 490.00 kg
Trockenmasse 490.00 kg
Gesamtmasse 490.00 kg
Länge 1.80 m
Durchmesser 0.70 m
Spannweite 5.00 m
Form Box + 2 pan
Hersteller KUIP
Bus-Typ Kuiper
Phasenstatus In Orbit
Besitzer/Staat KUIP/US

Most Searched